AFL101 KJFK-UUEE

Flight info

Callsign AFL101
Flight time N/A
Altitude 33000
Route MERIT HFD PUT EBONY RIKAL/K900F350 53N050W 56N040W 59N030W 61N020W 62N010W/K900F370 IPTON SUVAR NIRPU INLOG T73 NAMIN
Aircraft B77W/H-SDE1E2E3FGHIJ2J3J4J5M1RWXYZ/LB1D1

Departure

Time 2026-05-01 08:02
Airport John F. Kennedy International Airport (KJFK)

Arrival

Time N/A
Airport Sheremetyevo International Airport (UUEE)
Time Latitude Longitude Altitude Speed Heading
2026-05-01 07:43 40.64388 -73.77923 25 ft 0 kts 243°
2026-05-01 07:53 40.64391 -73.77914 28 ft 2 kts 241°
2026-05-01 07:54 40.64406 -73.77876 31 ft 2 kts 243°
2026-05-01 07:55 40.64441 -73.77844 31 ft 2 kts 136°
2026-05-01 07:55 40.64452 -73.77883 31 ft 2 kts 104°
2026-05-01 07:56 40.64453 -73.77889 31 ft 0 kts 104°
2026-05-01 07:58 40.64434 -73.77815 31 ft 16 kts 113°
2026-05-01 07:58 40.64274 -73.77621 27 ft 16 kts 152°
2026-05-01 07:59 40.64088 -73.77462 29 ft 16 kts 130°
2026-05-01 07:59 40.63954 -73.77228 30 ft 16 kts 127°
2026-05-01 08:00 40.63636 -73.77103 31 ft 28 kts 211°
2026-05-01 08:01 40.63140 -73.77491 27 ft 28 kts 211°
2026-05-01 08:01 40.63022 -73.77600 30 ft 14 kts 244°
2026-05-01 08:01 40.63049 -73.77732 31 ft 29 kts 304°
2026-05-01 08:02 40.63928 -73.79650 117 ft 205 kts 302°
2026-05-01 08:02 40.64724 -73.81361 917 ft 219 kts 303°
2026-05-01 08:03 40.65661 -73.85068 2610 ft 240 kts 259°
2026-05-01 08:03 40.64750 -73.86939 3356 ft 251 kts 223°
2026-05-01 08:03 40.61726 -73.89274 5032 ft 255 kts 204°
2026-05-01 08:04 40.58080 -73.89066 6304 ft 273 kts 172°
2026-05-01 08:04 40.54311 -73.88030 7806 ft 281 kts 166°
2026-05-01 08:05 40.50969 -73.85332 9090 ft 303 kts 124°
2026-05-01 08:05 40.50242 -73.82719 9765 ft 311 kts 95°
2026-05-01 08:05 40.50520 -73.79915 10320 ft 315 kts 65°
2026-05-01 08:06 40.52796 -73.74639 10743 ft 355 kts 56°
2026-05-01 08:06 40.55498 -73.68745 11321 ft 394 kts 57°
2026-05-01 08:07 40.58339 -73.62371 12638 ft 412 kts 57°
2026-05-01 08:07 40.61249 -73.55761 14111 ft 423 kts 57°
2026-05-01 08:08 40.62798 -73.52472 14744 ft 423 kts 49°
2026-05-01 08:08 40.67358 -73.47711 16071 ft 417 kts 19°
2026-05-01 08:09 40.72827 -73.45105 17289 ft 424 kts 14°
2026-05-01 08:09 40.75633 -73.43818 18035 ft 427 kts 14°
2026-05-01 08:09 40.78444 -73.42515 18705 ft 431 kts 14°
2026-05-01 08:10 40.84153 -73.39825 19896 ft 440 kts 14°
2026-05-01 08:10 40.89958 -73.37054 21077 ft 448 kts 14°
2026-05-01 08:11 40.95879 -73.34212 22235 ft 456 kts 14°
2026-05-01 08:11 41.01857 -73.31337 23325 ft 464 kts 14°
2026-05-01 08:12 41.07973 -73.28391 24270 ft 471 kts 14°
2026-05-01 08:12 41.11058 -73.26902 24735 ft 474 kts 15°
2026-05-01 08:12 41.17310 -73.23881 25629 ft 480 kts 15°
2026-05-01 08:13 41.20456 -73.22359 26061 ft 483 kts 15°
2026-05-01 08:13 41.23624 -73.20825 26475 ft 486 kts 15°
2026-05-01 08:13 41.30017 -73.17723 27266 ft 493 kts 15°
2026-05-01 08:14 41.33202 -73.16165 27634 ft 494 kts 17°
2026-05-01 08:14 41.36304 -73.14072 27869 ft 508 kts 30°
2026-05-01 08:14 41.39057 -73.11040 28185 ft 518 kts 43°
2026-05-01 08:14 41.41319 -73.07270 28554 ft 524 kts 56°
2026-05-01 08:15 41.43160 -73.03065 28867 ft 527 kts 59°
2026-05-01 08:15 41.46770 -72.94495 29460 ft 533 kts 59°
2026-05-01 08:15 41.48607 -72.90203 29815 ft 533 kts 59°
2026-05-01 08:16 41.50466 -72.85923 30210 ft 532 kts 58°
2026-05-01 08:16 41.52335 -72.81660 30596 ft 531 kts 59°
2026-05-01 08:16 41.53570 -72.78851 30837 ft 530 kts 59°
2026-05-01 08:16 41.55438 -72.74604 31162 ft 530 kts 59°
2026-05-01 08:17 41.57929 -72.68924 31600 ft 530 kts 59°
2026-05-01 08:17 41.59764 -72.64724 31892 ft 530 kts 59°
2026-05-01 08:17 41.61016 -72.61854 32104 ft 530 kts 59°
2026-05-01 08:17 41.62870 -72.57598 32413 ft 529 kts 59°
2026-05-01 08:18 41.64723 -72.53348 32714 ft 529 kts 59°
2026-05-01 08:18 41.68507 -72.44912 32898 ft 534 kts 58°
2026-05-01 08:19 41.72356 -72.36434 32886 ft 530 kts 58°
2026-05-01 08:19 41.76186 -72.27934 32907 ft 539 kts 59°
2026-05-01 08:20 41.80079 -72.19235 32910 ft 548 kts 59°
2026-05-01 08:20 41.84019 -72.10399 32901 ft 554 kts 59°
2026-05-01 08:21 41.87970 -72.01516 32888 ft 555 kts 59°
2026-05-01 08:21 41.91922 -71.92609 32882 ft 555 kts 59°
2026-05-01 08:22 41.96045 -71.83863 32867 ft 553 kts 53°
2026-05-01 08:22 42.01041 -71.76055 32874 ft 550 kts 47°
2026-05-01 08:23 42.06250 -71.68536 32862 ft 548 kts 47°
2026-05-01 08:23 42.11422 -71.61000 32863 ft 547 kts 47°
2026-05-01 08:24 42.16511 -71.53479 32867 ft 546 kts 48°
2026-05-01 08:24 42.21621 -71.45873 32872 ft 546 kts 48°
2026-05-01 08:25 42.26716 -71.38271 32872 ft 546 kts 48°
2026-05-01 08:25 42.31812 -71.30655 32858 ft 546 kts 48°
2026-05-01 08:26 42.36901 -71.23032 32853 ft 546 kts 49°
2026-05-01 08:26 42.41951 -71.15449 32851 ft 546 kts 49°
2026-05-01 08:27 42.47030 -71.07802 32859 ft 546 kts 49°
2026-05-01 08:27 42.52105 -71.00141 32847 ft 546 kts 49°
2026-05-01 08:28 42.57169 -70.92475 32851 ft 545 kts 49°
2026-05-01 08:28 42.62223 -70.84805 32850 ft 545 kts 49°
2026-05-01 08:29 42.67278 -70.77113 32843 ft 545 kts 50°
2026-05-01 08:29 42.72324 -70.69414 32839 ft 545 kts 50°
2026-05-01 08:30 42.77331 -70.61755 32832 ft 544 kts 50°
2026-05-01 08:30 42.82364 -70.54034 32826 ft 544 kts 50°
2026-05-01 08:31 42.87382 -70.46318 32820 ft 544 kts 50°
2026-05-01 08:31 42.92393 -70.38592 32821 ft 543 kts 50°
2026-05-01 08:32 42.97397 -70.30854 32818 ft 543 kts 51°
2026-05-01 08:32 43.02389 -70.23116 32823 ft 542 kts 51°
2026-05-01 08:33 43.07375 -70.15366 32828 ft 542 kts 51°
2026-05-01 08:33 43.12322 -70.07656 32823 ft 542 kts 51°
2026-05-01 08:34 43.17288 -69.99895 32818 ft 542 kts 51°
2026-05-01 08:34 43.22252 -69.92118 32820 ft 542 kts 51°
2026-05-01 08:35 43.27210 -69.84328 32816 ft 542 kts 51°
2026-05-01 08:35 43.32162 -69.76527 32813 ft 541 kts 51°
2026-05-01 08:36 43.37108 -69.68715 32810 ft 541 kts 52°
2026-05-01 08:36 43.42049 -69.60887 32806 ft 541 kts 52°
2026-05-01 08:37 43.46975 -69.53065 32804 ft 541 kts 52°
2026-05-01 08:37 43.51860 -69.45285 32799 ft 540 kts 52°
2026-05-01 08:38 43.56771 -69.37443 32795 ft 540 kts 52°
2026-05-01 08:38 43.61671 -69.29597 32796 ft 539 kts 52°
2026-05-01 08:39 43.66564 -69.21742 32792 ft 539 kts 52°
2026-05-01 08:39 43.71454 -69.13868 32789 ft 538 kts 52°
2026-05-01 08:40 43.78724 -69.02125 32786 ft 538 kts 52°
2026-05-01 08:40 43.83581 -68.94252 32781 ft 538 kts 53°
2026-05-01 08:41 43.88432 -68.86367 32781 ft 537 kts 53°
2026-05-01 08:41 43.93281 -68.78464 32778 ft 537 kts 53°
2026-05-01 08:42 43.98112 -68.70568 32778 ft 537 kts 53°
2026-05-01 08:42 44.02942 -68.62654 32777 ft 536 kts 53°
2026-05-01 08:43 44.07759 -68.54736 32764 ft 536 kts 53°
2026-05-01 08:43 44.12537 -68.46862 32767 ft 536 kts 53°
2026-05-01 08:44 44.17337 -68.38930 32764 ft 535 kts 53°
2026-05-01 08:44 44.22130 -68.30987 32757 ft 535 kts 53°
2026-05-01 08:45 44.26912 -68.23042 32757 ft 534 kts 53°
2026-05-01 08:45 44.31686 -68.15086 32746 ft 534 kts 54°
2026-05-01 08:46 44.36453 -68.07122 32758 ft 534 kts 54°
2026-05-01 08:46 44.41209 -67.99151 32750 ft 534 kts 54°
2026-05-01 08:47 44.45963 -67.91162 32752 ft 534 kts 54°
2026-05-01 08:47 44.50707 -67.83168 32744 ft 534 kts 54°
2026-05-01 08:48 44.55414 -67.75216 32741 ft 534 kts 54°
2026-05-01 08:48 44.60150 -67.67189 32737 ft 534 kts 54°
2026-05-01 08:49 44.64888 -67.59139 32736 ft 534 kts 54°
2026-05-01 08:49 44.69616 -67.51080 32742 ft 535 kts 55°
2026-05-01 08:50 44.74324 -67.43034 32736 ft 535 kts 55°
2026-05-01 08:50 44.79053 -67.34929 32741 ft 536 kts 55°
2026-05-01 08:51 44.83782 -67.26799 32742 ft 536 kts 55°
2026-05-01 08:51 44.88508 -67.18655 32739 ft 537 kts 55°
2026-05-01 08:52 44.93473 -67.10736 32746 ft 540 kts 51°
2026-05-01 08:52 44.98712 -67.03121 32743 ft 541 kts 50°
2026-05-01 08:53 45.03976 -66.95502 32753 ft 542 kts 50°
2026-05-01 08:53 45.09221 -66.87819 32757 ft 542 kts 51°
2026-05-01 08:54 45.14411 -66.80150 32741 ft 543 kts 51°
2026-05-01 08:54 45.19635 -66.72402 32734 ft 543 kts 51°
2026-05-01 08:55 45.24847 -66.64654 32732 ft 543 kts 51°
2026-05-01 08:55 45.30058 -66.56888 32733 ft 543 kts 51°
2026-05-01 08:56 45.35257 -66.49120 32727 ft 543 kts 51°
2026-05-01 08:56 45.40452 -66.41336 32728 ft 542 kts 51°
2026-05-01 08:57 45.45641 -66.33537 32731 ft 542 kts 51°
2026-05-01 08:57 45.50821 -66.25730 32732 ft 542 kts 51°
2026-05-01 08:58 45.55974 -66.17940 32749 ft 543 kts 51°
2026-05-01 08:58 45.61152 -66.10090 32744 ft 543 kts 51°
2026-05-01 08:59 45.66332 -66.02216 32749 ft 544 kts 51°
2026-05-01 08:59 45.71520 -65.94305 32745 ft 545 kts 51°
2026-05-01 09:00 45.76699 -65.86386 32753 ft 545 kts 52°
2026-05-01 09:00 45.81886 -65.78432 32758 ft 546 kts 52°
2026-05-01 09:01 45.87036 -65.70511 32761 ft 546 kts 52°
2026-05-01 09:01 45.92220 -65.62515 32769 ft 546 kts 52°
2026-05-01 09:02 45.97397 -65.54505 32770 ft 547 kts 52°
2026-05-01 09:02 46.02570 -65.46477 32763 ft 547 kts 52°
2026-05-01 09:03 46.07713 -65.38475 32778 ft 547 kts 52°
2026-05-01 09:03 46.12883 -65.30405 32797 ft 548 kts 51°
2026-05-01 09:04 46.18051 -65.22312 32791 ft 548 kts 51°
2026-05-01 09:04 46.23216 -65.14203 32798 ft 549 kts 51°
2026-05-01 09:05 46.27514 -65.07435 32822 ft 549 kts 51°
2026-05-01 09:05 46.32682 -64.99275 32810 ft 550 kts 51°
2026-05-01 09:06 46.37848 -64.91095 32826 ft 550 kts 51°
2026-05-01 09:06 46.43011 -64.82894 32815 ft 551 kts 51°
2026-05-01 09:07 46.48176 -64.74664 32837 ft 551 kts 51°
2026-05-01 09:07 46.53335 -64.66420 32836 ft 551 kts 51°
2026-05-01 09:08 46.58453 -64.58217 32843 ft 551 kts 51°
2026-05-01 09:08 46.63603 -64.49935 32849 ft 551 kts 51°
2026-05-01 09:09 46.68736 -64.41657 32852 ft 550 kts 51°
2026-05-01 09:09 46.73864 -64.33361 32860 ft 551 kts 50°
2026-05-01 09:10 46.78985 -64.25050 32868 ft 551 kts 50°
2026-05-01 09:10 46.84107 -64.16712 32879 ft 552 kts 50°
2026-05-01 09:11 46.89197 -64.08401 32887 ft 552 kts 50°
2026-05-01 09:11 46.94315 -64.00019 32892 ft 552 kts 50°
2026-05-01 09:12 46.99424 -63.91626 32898 ft 551 kts 50°
2026-05-01 09:12 47.04523 -63.83223 32914 ft 550 kts 50°
2026-05-01 09:13 47.09597 -63.74835 32928 ft 549 kts 50°
2026-05-01 09:13 47.14653 -63.66450 32934 ft 547 kts 50°
2026-05-01 09:14 47.19689 -63.58073 32939 ft 546 kts 50°
2026-05-01 09:14 47.24682 -63.49740 32945 ft 545 kts 50°
2026-05-01 09:15 47.29681 -63.41373 32947 ft 543 kts 50°
2026-05-01 09:15 47.34668 -63.32999 32952 ft 543 kts 50°
2026-05-01 09:16 47.39640 -63.24625 32958 ft 542 kts 50°
2026-05-01 09:17 47.47076 -63.12052 32965 ft 541 kts 50°
2026-05-01 09:17 47.54495 -62.99448 32978 ft 541 kts 50°
2026-05-01 09:18 47.61860 -62.86877 32987 ft 539 kts 50°
2026-05-01 09:19 47.69206 -62.74280 32992 ft 536 kts 50°
2026-05-01 09:20 47.76476 -62.61756 33003 ft 532 kts 50°
2026-05-01 09:21 47.86093 -62.45097 33013 ft 528 kts 50°
2026-05-01 09:21 47.93252 -62.32627 33027 ft 527 kts 50°
2026-05-01 09:22 48.02721 -62.16045 33039 ft 526 kts 50°
2026-05-01 09:23 48.09824 -62.03539 33051 ft 525 kts 51°
2026-05-01 09:24 48.16901 -61.91020 33065 ft 525 kts 51°
2026-05-01 09:25 48.26259 -61.74378 33070 ft 516 kts 51°
2026-05-01 09:26 48.33216 -61.61933 33088 ft 523 kts 51°
2026-05-01 09:26 48.40234 -61.49325 33091 ft 523 kts 52°
2026-05-01 09:27 48.47216 -61.36721 33103 ft 522 kts 52°
2026-05-01 09:28 48.51856 -61.28313 33106 ft 521 kts 52°
2026-05-01 09:28 48.56489 -61.19890 33112 ft 521 kts 52°
2026-05-01 09:29 48.63387 -61.07299 33133 ft 520 kts 52°
2026-05-01 09:30 48.70294 -60.94633 33116 ft 520 kts 53°
2026-05-01 09:30 48.77197 -60.81912 33121 ft 521 kts 53°
2026-05-01 09:31 48.81791 -60.73414 33143 ft 521 kts 53°
2026-05-01 09:32 48.88679 -60.60620 33140 ft 521 kts 53°
2026-05-01 09:32 48.95520 -60.47853 33146 ft 522 kts 53°
2026-05-01 09:33 49.00098 -60.39275 33151 ft 522 kts 53°
2026-05-01 09:34 49.06958 -60.26368 33162 ft 522 kts 53°
2026-05-01 09:34 49.13809 -60.13415 33164 ft 523 kts 53°
2026-05-01 09:35 49.20627 -60.00461 33165 ft 523 kts 53°
2026-05-01 09:36 49.25180 -59.91776 33173 ft 523 kts 53°
2026-05-01 09:36 49.29730 -59.83069 33174 ft 524 kts 53°
2026-05-01 09:37 49.34273 -59.74344 33180 ft 524 kts 53°
2026-05-01 09:37 49.41086 -59.61208 33186 ft 524 kts 53°
2026-05-01 09:38 49.47887 -59.48030 33191 ft 524 kts 53°
2026-05-01 09:39 49.54674 -59.34814 33194 ft 525 kts 53°
2026-05-01 09:39 49.59160 -59.26040 33193 ft 525 kts 53°
2026-05-01 09:40 49.65930 -59.12748 33202 ft 525 kts 53°
2026-05-01 09:41 49.70436 -59.03862 33205 ft 525 kts 53°
2026-05-01 09:41 49.77180 -58.90506 33211 ft 525 kts 53°
2026-05-01 09:42 49.81670 -58.81577 33214 ft 525 kts 53°
2026-05-01 09:43 49.90602 -58.63724 33218 ft 525 kts 53°
2026-05-01 09:43 49.95073 -58.54742 33220 ft 525 kts 53°
2026-05-01 09:44 50.01743 -58.41286 33219 ft 525 kts 53°
2026-05-01 09:45 50.06195 -58.32265 33222 ft 525 kts 53°
2026-05-01 09:45 50.12859 -58.18705 33228 ft 525 kts 53°
2026-05-01 09:46 50.17294 -58.09642 33228 ft 525 kts 53°
2026-05-01 09:46 50.21722 -58.00563 33230 ft 525 kts 53°
2026-05-01 09:47 50.26141 -57.91469 33233 ft 525 kts 53°
2026-05-01 09:47 50.30523 -57.82420 33235 ft 525 kts 53°
2026-05-01 09:48 50.34922 -57.73305 33238 ft 525 kts 54°
2026-05-01 09:48 50.39327 -57.64146 33242 ft 525 kts 54°
2026-05-01 09:49 50.43713 -57.54994 33249 ft 524 kts 54°
2026-05-01 09:49 50.48089 -57.45833 33252 ft 524 kts 54°
2026-05-01 09:50 50.52456 -57.36658 33256 ft 524 kts 54°
2026-05-01 09:50 50.56790 -57.27519 33260 ft 524 kts 55°
2026-05-01 09:51 50.61142 -57.18312 33263 ft 524 kts 55°
2026-05-01 09:51 50.65485 -57.09090 33273 ft 523 kts 55°
2026-05-01 09:52 50.69821 -56.99850 33271 ft 523 kts 56°
2026-05-01 09:52 50.74119 -56.90658 33282 ft 523 kts 56°
2026-05-01 09:53 50.78435 -56.81397 33291 ft 523 kts 56°
2026-05-01 09:53 50.82749 -56.72105 33288 ft 523 kts 56°
2026-05-01 09:54 50.87048 -56.62815 33292 ft 523 kts 57°
2026-05-01 09:54 50.91318 -56.53554 33298 ft 523 kts 57°
2026-05-01 09:55 50.95598 -56.44238 33301 ft 522 kts 57°
2026-05-01 09:55 50.99150 -56.36481 33297 ft 522 kts 57°
2026-05-01 09:56 51.03410 -56.27145 33302 ft 521 kts 57°
2026-05-01 09:56 51.07661 -56.17798 33305 ft 521 kts 57°
2026-05-01 09:57 51.11897 -56.08450 33313 ft 520 kts 57°
2026-05-01 09:57 51.16119 -55.99099 33304 ft 520 kts 57°
2026-05-01 09:58 51.20306 -55.89794 33311 ft 519 kts 57°
2026-05-01 09:58 51.24506 -55.80423 33302 ft 518 kts 57°
2026-05-01 09:59 51.28690 -55.71056 33323 ft 517 kts 57°
2026-05-01 09:59 51.32861 -55.61685 33327 ft 517 kts 57°
2026-05-01 10:00 51.37019 -55.52310 33319 ft 516 kts 57°
2026-05-01 10:00 51.41164 -55.42928 33317 ft 516 kts 57°
2026-05-01 10:01 51.45297 -55.33539 33324 ft 515 kts 57°
2026-05-01 10:01 51.49421 -55.24138 33320 ft 514 kts 57°
2026-05-01 10:02 51.53506 -55.14792 33318 ft 514 kts 57°
2026-05-01 10:02 51.57608 -55.05373 33322 ft 514 kts 57°
2026-05-01 10:03 51.61709 -54.95921 33327 ft 515 kts 57°
2026-05-01 10:03 51.65803 -54.86451 33337 ft 514 kts 57°
2026-05-01 10:04 51.69880 -54.76986 33336 ft 514 kts 57°
2026-05-01 10:04 51.73917 -54.67577 33339 ft 513 kts 57°
2026-05-01 10:05 51.77975 -54.58090 33340 ft 513 kts 57°
2026-05-01 10:05 51.81617 -54.48222 33337 ft 510 kts 66°
2026-05-01 10:06 51.84600 -54.37832 33351 ft 510 kts 68°
2026-05-01 10:06 51.87550 -54.27373 33350 ft 510 kts 68°
2026-05-01 10:07 51.90506 -54.16994 33351 ft 511 kts 67°
2026-05-01 10:07 51.93503 -54.06525 33360 ft 512 kts 67°
2026-05-01 10:08 51.97990 -53.90795 33360 ft 513 kts 68°
2026-05-01 10:09 52.00969 -53.80283 33363 ft 513 kts 68°
2026-05-01 10:09 52.03942 -53.69743 33365 ft 513 kts 68°
2026-05-01 10:10 52.06905 -53.59187 33367 ft 513 kts 68°
2026-05-01 10:10 52.11334 -53.43319 33375 ft 513 kts 68°
2026-05-01 10:11 52.14275 -53.32724 33377 ft 513 kts 68°
2026-05-01 10:11 52.17187 -53.22188 33379 ft 513 kts 68°
2026-05-01 10:12 52.20111 -53.11558 33383 ft 513 kts 68°
2026-05-01 10:13 52.24476 -52.95595 33382 ft 513 kts 68°
2026-05-01 10:13 52.27376 -52.84930 33389 ft 513 kts 68°
2026-05-01 10:14 52.31687 -52.68986 33400 ft 513 kts 68°
2026-05-01 10:14 52.34562 -52.58291 33404 ft 513 kts 68°
2026-05-01 10:15 52.37426 -52.47584 33404 ft 513 kts 68°
2026-05-01 10:15 52.40282 -52.36859 33409 ft 513 kts 68°
2026-05-01 10:16 52.43131 -52.26110 33414 ft 514 kts 68°
2026-05-01 10:17 52.47383 -52.09974 33426 ft 514 kts 68°
2026-05-01 10:17 52.51591 -51.93889 33415 ft 513 kts 68°
2026-05-01 10:18 52.55795 -51.77702 33418 ft 513 kts 69°
2026-05-01 10:19 52.58587 -51.66891 33434 ft 513 kts 69°
2026-05-01 10:19 52.61367 -51.56073 33434 ft 513 kts 69°
2026-05-01 10:20 52.65517 -51.39825 33439 ft 513 kts 69°
2026-05-01 10:20 52.68271 -51.28976 33440 ft 513 kts 69°
2026-05-01 10:21 52.72367 -51.12744 33439 ft 513 kts 69°
2026-05-01 10:22 52.76459 -50.96411 33442 ft 513 kts 69°
2026-05-01 10:23 52.80528 -50.80048 33446 ft 513 kts 69°
2026-05-01 10:23 52.84563 -50.63699 33447 ft 513 kts 69°
2026-05-01 10:24 52.89927 -50.41777 33453 ft 513 kts 69°
2026-05-01 10:25 52.95246 -50.19818 33458 ft 513 kts 69°
2026-05-01 10:26 52.97889 -50.08828 33459 ft 513 kts 69°
2026-05-01 10:27 53.04363 -49.87710 33466 ft 514 kts 59°
2026-05-01 10:28 53.09991 -49.72532 33463 ft 515 kts 59°
2026-05-01 10:28 53.15540 -49.57247 33468 ft 516 kts 60°
2026-05-01 10:29 53.21073 -49.41824 33468 ft 516 kts 60°
2026-05-01 10:30 53.28404 -49.21252 33470 ft 517 kts 60°
2026-05-01 10:31 53.35741 -49.00503 33475 ft 517 kts 60°
2026-05-01 10:32 53.41197 -48.84959 33476 ft 518 kts 60°
2026-05-01 10:33 53.48476 -48.64066 33481 ft 518 kts 60°
2026-05-01 10:34 53.53890 -48.48415 33482 ft 518 kts 60°
2026-05-01 10:34 53.57505 -48.37907 33482 ft 519 kts 60°
2026-05-01 10:35 53.62896 -48.22153 33487 ft 519 kts 61°
2026-05-01 10:35 53.66496 -48.11576 33488 ft 520 kts 61°
2026-05-01 10:36 53.71882 -47.95667 33487 ft 520 kts 61°
2026-05-01 10:37 53.75468 -47.85021 33488 ft 521 kts 61°
2026-05-01 10:37 53.80814 -47.69058 33490 ft 521 kts 61°
2026-05-01 10:38 53.84383 -47.58342 33490 ft 522 kts 61°
2026-05-01 10:38 53.87925 -47.47662 33494 ft 522 kts 62°
2026-05-01 10:39 53.91480 -47.36895 33488 ft 523 kts 62°
2026-05-01 10:39 53.95011 -47.26154 33493 ft 523 kts 62°
2026-05-01 10:40 53.98561 -47.15309 33504 ft 524 kts 62°
2026-05-01 10:40 54.02096 -47.04457 33493 ft 524 kts 62°
2026-05-01 10:41 54.05600 -46.93655 33495 ft 525 kts 62°
2026-05-01 10:42 54.10889 -46.77258 33492 ft 525 kts 62°
2026-05-01 10:42 54.13805 -46.68171 33493 ft 526 kts 62°
2026-05-01 10:43 54.17884 -46.55401 33497 ft 526 kts 62°
2026-05-01 10:43 54.20790 -46.46262 33496 ft 526 kts 62°
2026-05-01 10:44 54.24279 -46.35243 33496 ft 527 kts 62°
2026-05-01 10:44 54.27763 -46.24191 33498 ft 527 kts 62°
2026-05-01 10:45 54.31220 -46.13172 33501 ft 528 kts 62°
2026-05-01 10:45 54.34685 -46.02079 33499 ft 528 kts 63°
2026-05-01 10:46 54.38147 -45.90944 33496 ft 528 kts 63°
2026-05-01 10:46 54.41597 -45.79794 33497 ft 529 kts 63°
2026-05-01 10:47 54.45019 -45.68683 33497 ft 529 kts 63°
2026-05-01 10:47 54.48450 -45.57490 33497 ft 529 kts 63°
2026-05-01 10:48 54.51886 -45.46229 33493 ft 530 kts 63°
2026-05-01 10:48 54.55285 -45.35037 33498 ft 530 kts 63°
2026-05-01 10:49 54.58702 -45.23734 33495 ft 531 kts 63°
2026-05-01 10:49 54.62110 -45.12405 33493 ft 531 kts 63°
2026-05-01 10:50 54.65483 -45.01137 33496 ft 532 kts 63°
2026-05-01 10:50 54.68870 -44.89771 33495 ft 532 kts 63°
2026-05-01 10:51 54.72255 -44.78354 33494 ft 532 kts 63°
2026-05-01 10:51 54.75607 -44.66995 33492 ft 533 kts 63°
2026-05-01 10:52 54.78973 -44.55534 33493 ft 533 kts 63°
2026-05-01 10:52 54.82333 -44.44037 33492 ft 534 kts 63°
2026-05-01 10:53 54.85686 -44.32506 33491 ft 534 kts 63°
2026-05-01 10:53 54.89011 -44.21016 33493 ft 535 kts 63°
2026-05-01 10:54 54.92351 -44.09418 33492 ft 535 kts 63°
2026-05-01 10:54 54.95658 -43.97876 33489 ft 535 kts 63°
2026-05-01 10:55 54.98974 -43.86246 33486 ft 536 kts 64°
2026-05-01 10:55 55.02260 -43.74660 33486 ft 536 kts 64°
2026-05-01 10:56 55.05562 -43.62964 33485 ft 536 kts 64°
2026-05-01 10:56 55.08849 -43.51261 33485 ft 537 kts 64°
2026-05-01 10:57 55.12129 -43.39522 33475 ft 537 kts 64°
2026-05-01 10:57 55.15382 -43.27822 33487 ft 537 kts 64°
2026-05-01 10:58 55.18647 -43.16015 33487 ft 538 kts 64°
2026-05-01 10:58 55.21900 -43.04194 33488 ft 538 kts 64°
2026-05-01 10:59 55.25122 -42.92427 33479 ft 538 kts 64°
2026-05-01 10:59 55.28353 -42.80563 33469 ft 538 kts 64°
2026-05-01 11:00 55.31571 -42.68686 33478 ft 539 kts 64°
2026-05-01 11:00 55.34784 -42.56764 33480 ft 539 kts 64°
2026-05-01 11:01 55.37956 -42.44941 33423 ft 532 kts 65°
2026-05-01 11:01 55.41073 -42.33253 33469 ft 526 kts 65°
2026-05-01 11:02 55.44182 -42.21536 33479 ft 529 kts 65°
2026-05-01 11:02 55.47276 -42.09812 33471 ft 531 kts 65°
2026-05-01 11:03 55.50398 -41.97926 33465 ft 533 kts 65°
2026-05-01 11:03 55.53491 -41.86088 33471 ft 534 kts 65°
2026-05-01 11:04 55.56601 -41.74121 33469 ft 535 kts 65°
2026-05-01 11:04 55.59689 -41.62172 33464 ft 535 kts 65°
2026-05-01 11:05 55.62776 -41.50166 33463 ft 535 kts 65°
2026-05-01 11:05 55.65832 -41.38216 33467 ft 535 kts 65°
2026-05-01 11:06 55.68891 -41.26189 33464 ft 535 kts 66°
2026-05-01 11:06 55.71947 -41.14110 33460 ft 536 kts 66°
2026-05-01 11:07 55.76488 -40.96038 33456 ft 536 kts 66°
2026-05-01 11:07 55.79519 -40.83889 33454 ft 537 kts 66°
2026-05-01 11:08 55.82522 -40.71790 33455 ft 538 kts 66°
2026-05-01 11:09 55.87047 -40.53432 33451 ft 539 kts 66°
2026-05-01 11:09 55.90049 -40.41163 33451 ft 540 kts 66°
2026-05-01 11:10 55.94519 -40.22772 33446 ft 541 kts 66°
2026-05-01 11:10 55.97503 -40.10409 33444 ft 542 kts 66°
2026-05-01 11:11 56.00657 -39.98175 33442 ft 542 kts 60°
2026-05-01 11:11 56.04693 -39.86778 33444 ft 541 kts 54°
2026-05-01 11:12 56.08868 -39.75598 33443 ft 542 kts 54°
2026-05-01 11:12 56.13034 -39.64299 33436 ft 543 kts 55°
2026-05-01 11:13 56.17136 -39.52986 33433 ft 544 kts 55°
2026-05-01 11:13 56.21245 -39.41552 33432 ft 545 kts 55°
2026-05-01 11:14 56.25350 -39.30075 33430 ft 545 kts 55°
2026-05-01 11:14 56.29452 -39.18567 33424 ft 546 kts 55°
2026-05-01 11:15 56.33525 -39.07090 33424 ft 547 kts 55°
2026-05-01 11:15 56.37618 -38.95500 33417 ft 547 kts 55°
2026-05-01 11:16 56.41682 -38.83938 33418 ft 548 kts 55°
2026-05-01 11:16 56.45760 -38.72278 33417 ft 548 kts 55°
2026-05-01 11:17 56.49829 -38.60589 33415 ft 549 kts 55°
2026-05-01 11:17 56.53870 -38.48925 33411 ft 549 kts 55°
2026-05-01 11:18 56.57930 -38.37147 33414 ft 549 kts 55°
2026-05-01 11:18 56.61979 -38.25345 33394 ft 550 kts 55°
2026-05-01 11:19 56.66002 -38.13558 33392 ft 551 kts 55°
2026-05-01 11:19 56.70038 -38.01676 33395 ft 551 kts 55°
2026-05-01 11:20 56.74039 -37.89840 33391 ft 552 kts 55°
2026-05-01 11:20 56.78069 -37.77860 33386 ft 552 kts 55°
2026-05-01 11:21 56.82053 -37.65955 33383 ft 553 kts 55°
2026-05-01 11:21 56.86039 -37.53987 33383 ft 553 kts 55°
2026-05-01 11:22 56.90030 -37.41940 33383 ft 553 kts 55°
2026-05-01 11:22 56.94015 -37.29852 33383 ft 554 kts 56°
2026-05-01 11:23 56.97989 -37.17736 33372 ft 554 kts 56°
2026-05-01 11:23 57.01925 -37.05677 33371 ft 554 kts 56°
2026-05-01 11:24 57.05882 -36.93490 33368 ft 554 kts 56°
2026-05-01 11:25 57.11785 -36.75191 33365 ft 555 kts 56°
2026-05-01 11:25 57.17643 -36.56893 33358 ft 555 kts 56°
2026-05-01 11:26 57.23506 -36.38436 33351 ft 555 kts 56°
2026-05-01 11:27 57.27403 -36.26089 33346 ft 555 kts 56°
2026-05-01 11:27 57.31258 -36.13811 33349 ft 555 kts 56°
2026-05-01 11:28 57.35114 -36.01463 33336 ft 555 kts 56°
2026-05-01 11:28 57.38976 -35.89033 33334 ft 555 kts 56°
2026-05-01 11:29 57.44715 -35.70441 33337 ft 555 kts 56°
2026-05-01 11:30 57.49821 -35.53773 33332 ft 555 kts 56°
2026-05-01 11:30 57.53604 -35.41349 33332 ft 555 kts 56°
2026-05-01 11:31 57.57399 -35.28815 33330 ft 555 kts 56°
2026-05-01 11:31 57.61183 -35.16254 33326 ft 555 kts 56°
2026-05-01 11:32 57.64929 -35.03750 33323 ft 555 kts 56°
2026-05-01 11:32 57.68692 -34.91121 33321 ft 555 kts 56°
2026-05-01 11:33 57.72437 -34.78486 33320 ft 555 kts 56°
2026-05-01 11:33 57.76149 -34.65894 33318 ft 555 kts 56°
2026-05-01 11:34 57.79877 -34.53179 33314 ft 556 kts 56°
2026-05-01 11:34 57.83575 -34.40495 33314 ft 556 kts 57°
2026-05-01 11:35 57.87276 -34.27731 33309 ft 556 kts 57°
2026-05-01 11:35 57.90972 -34.14918 33303 ft 556 kts 57°
2026-05-01 11:36 57.94624 -34.02182 33301 ft 556 kts 57°
2026-05-01 11:36 57.98293 -33.89316 33300 ft 556 kts 57°
2026-05-01 11:37 58.01949 -33.76425 33297 ft 556 kts 57°
2026-05-01 11:37 58.05568 -33.63591 33295 ft 556 kts 57°
2026-05-01 11:38 58.09196 -33.50655 33291 ft 556 kts 57°
2026-05-01 11:38 58.12794 -33.37754 33290 ft 555 kts 57°
2026-05-01 11:39 58.16383 -33.24808 33286 ft 555 kts 57°
2026-05-01 11:39 58.19968 -33.11807 33279 ft 554 kts 57°
2026-05-01 11:40 58.23506 -32.98901 33289 ft 554 kts 58°
2026-05-01 11:40 58.27056 -32.85878 33272 ft 553 kts 58°
2026-05-01 11:41 58.30561 -32.72947 33270 ft 553 kts 58°
2026-05-01 11:41 58.34077 -32.59900 33272 ft 553 kts 58°
2026-05-01 11:42 58.37578 -32.46834 33269 ft 553 kts 58°
2026-05-01 11:42 58.41045 -32.33820 33264 ft 553 kts 58°
2026-05-01 11:43 58.44525 -32.20682 33261 ft 552 kts 58°
2026-05-01 11:43 58.47959 -32.07638 33257 ft 552 kts 58°
2026-05-01 11:44 58.53115 -31.87912 33251 ft 552 kts 59°
2026-05-01 11:44 58.56540 -31.74715 33252 ft 552 kts 59°
2026-05-01 11:45 58.59925 -31.61593 33253 ft 552 kts 59°
2026-05-01 11:45 58.63313 -31.48382 33246 ft 552 kts 59°
2026-05-01 11:46 58.66689 -31.35137 33242 ft 551 kts 59°
2026-05-01 11:46 58.70052 -31.21863 33243 ft 551 kts 59°
2026-05-01 11:47 58.73380 -31.08651 33240 ft 551 kts 59°
2026-05-01 11:47 58.76711 -30.95348 33238 ft 551 kts 59°
2026-05-01 11:48 58.80028 -30.82017 33241 ft 550 kts 59°
2026-05-01 11:48 58.83310 -30.68750 33231 ft 550 kts 60°
2026-05-01 11:49 58.86603 -30.55356 33234 ft 550 kts 60°
2026-05-01 11:49 58.89854 -30.42054 33226 ft 550 kts 60°
2026-05-01 11:50 58.93109 -30.28651 33232 ft 550 kts 60°
2026-05-01 11:50 58.96356 -30.15201 33228 ft 550 kts 60°
2026-05-01 11:51 58.99568 -30.01821 33227 ft 550 kts 60°
2026-05-01 11:51 59.02850 -29.88416 33225 ft 548 kts 59°
2026-05-01 11:52 59.06206 -29.75107 33222 ft 548 kts 59°
2026-05-01 11:52 59.09552 -29.61777 33218 ft 548 kts 59°
2026-05-01 11:53 59.12851 -29.48464 33215 ft 548 kts 59°
2026-05-01 11:53 59.16150 -29.35025 33264 ft 550 kts 59°
2026-05-01 11:54 59.17795 -29.28291 33546 ft 549 kts 60°
2026-05-01 11:54 59.19407 -29.21664 33919 ft 546 kts 60°
2026-05-01 11:54 59.21031 -29.14970 34214 ft 544 kts 60°
2026-05-01 11:54 59.22649 -29.08287 34403 ft 544 kts 60°
2026-05-01 11:55 59.24265 -29.01593 34600 ft 544 kts 60°
2026-05-01 11:55 59.25879 -28.94893 34796 ft 544 kts 60°
2026-05-01 11:55 59.27487 -28.88192 34991 ft 543 kts 60°
2026-05-01 11:55 59.29072 -28.81568 35125 ft 544 kts 60°
2026-05-01 11:56 59.32284 -28.68087 35198 ft 545 kts 60°
2026-05-01 11:56 59.35468 -28.54622 35197 ft 541 kts 60°
2026-05-01 11:57 59.38596 -28.41316 35200 ft 540 kts 60°
2026-05-01 11:57 59.41728 -28.27921 35200 ft 540 kts 61°
2026-05-01 11:58 59.44851 -28.14483 35208 ft 540 kts 61°
2026-05-01 11:59 59.49512 -27.94257 35200 ft 541 kts 61°
2026-05-01 11:59 59.52612 -27.80695 35201 ft 542 kts 61°
2026-05-01 12:00 59.57216 -27.60397 35196 ft 543 kts 62°
2026-05-01 12:01 59.61818 -27.39916 35193 ft 544 kts 62°
2026-05-01 12:01 59.64852 -27.26301 35188 ft 544 kts 62°
2026-05-01 12:02 59.67892 -27.12568 35182 ft 544 kts 62°
2026-05-01 12:02 59.70916 -26.98817 35183 ft 544 kts 62°
2026-05-01 12:03 59.73909 -26.85119 35183 ft 544 kts 62°
2026-05-01 12:03 59.76907 -26.71309 35185 ft 544 kts 62°
2026-05-01 12:04 59.79887 -26.57489 35189 ft 544 kts 63°
2026-05-01 12:04 59.82837 -26.43718 35180 ft 544 kts 63°
2026-05-01 12:05 59.85793 -26.29827 35176 ft 544 kts 63°
2026-05-01 12:05 59.90174 -26.09066 35173 ft 544 kts 63°
2026-05-01 12:06 59.93087 -25.95141 35174 ft 543 kts 63°
2026-05-01 12:06 59.95984 -25.81202 35174 ft 543 kts 63°
2026-05-01 12:07 59.98855 -25.67294 35172 ft 543 kts 64°
2026-05-01 12:07 60.01727 -25.53281 35156 ft 543 kts 64°
2026-05-01 12:08 60.04562 -25.39353 35169 ft 543 kts 64°
2026-05-01 12:08 60.07402 -25.25310 35159 ft 543 kts 64°
2026-05-01 12:09 60.10224 -25.11252 35162 ft 543 kts 64°
2026-05-01 12:09 60.13012 -24.97267 35158 ft 543 kts 64°
2026-05-01 12:10 60.17194 -24.76108 35156 ft 543 kts 65°
2026-05-01 12:11 60.21325 -24.54979 35161 ft 543 kts 65°
2026-05-01 12:11 60.24071 -24.40812 35154 ft 543 kts 65°
2026-05-01 12:12 60.26800 -24.26627 35155 ft 543 kts 65°
2026-05-01 12:12 60.29518 -24.12402 35149 ft 543 kts 65°
2026-05-01 12:13 60.32201 -23.98253 35143 ft 543 kts 66°
2026-05-01 12:13 60.34883 -23.84005 35148 ft 543 kts 66°
2026-05-01 12:14 60.37552 -23.69728 35144 ft 542 kts 66°
2026-05-01 12:14 60.40206 -23.55418 35148 ft 542 kts 66°
2026-05-01 12:15 60.42845 -23.41089 35149 ft 542 kts 66°
2026-05-01 12:15 60.45453 -23.26820 35137 ft 542 kts 66°
2026-05-01 12:16 60.48057 -23.12462 35139 ft 542 kts 67°
2026-05-01 12:16 60.50636 -22.98143 35136 ft 542 kts 67°
2026-05-01 12:17 60.53214 -22.83715 35135 ft 542 kts 67°
2026-05-01 12:17 60.55343 -22.71714 35131 ft 542 kts 67°
2026-05-01 12:18 60.57890 -22.57259 35136 ft 542 kts 67°
2026-05-01 12:18 60.60423 -22.42774 35129 ft 542 kts 68°
2026-05-01 12:19 60.62925 -22.28348 35126 ft 542 kts 68°
2026-05-01 12:19 60.65422 -22.13845 35124 ft 542 kts 68°
2026-05-01 12:20 60.67908 -21.99290 35120 ft 542 kts 68°
2026-05-01 12:20 60.70363 -21.84803 35119 ft 542 kts 68°
2026-05-01 12:21 60.72817 -21.70201 35113 ft 542 kts 68°
2026-05-01 12:21 60.75251 -21.55611 35113 ft 542 kts 69°
2026-05-01 12:22 60.77656 -21.41072 35114 ft 543 kts 69°
2026-05-01 12:22 60.80063 -21.26403 35107 ft 543 kts 69°
2026-05-01 12:23 60.82453 -21.11719 35106 ft 543 kts 69°
2026-05-01 12:23 60.84815 -20.97086 35110 ft 543 kts 69°
2026-05-01 12:24 60.87176 -20.82340 35104 ft 543 kts 70°
2026-05-01 12:24 60.89529 -20.67522 35101 ft 544 kts 70°
2026-05-01 12:25 60.93004 -20.45403 35093 ft 544 kts 70°
2026-05-01 12:26 60.95313 -20.30547 35091 ft 544 kts 70°
2026-05-01 12:26 60.98743 -20.08255 35091 ft 545 kts 70°
2026-05-01 12:27 61.02046 -19.85875 35074 ft 545 kts 72°
2026-05-01 12:28 61.05128 -19.63304 35075 ft 546 kts 73°
2026-05-01 12:29 61.08207 -19.40632 35077 ft 546 kts 73°
2026-05-01 12:29 61.11264 -19.17987 35073 ft 547 kts 73°
2026-05-01 12:30 61.14291 -18.95220 35066 ft 547 kts 73°
2026-05-01 12:31 61.16288 -18.80010 35066 ft 547 kts 73°
2026-05-01 12:31 61.18269 -18.64762 35062 ft 548 kts 73°
2026-05-01 12:32 61.20226 -18.49560 35060 ft 548 kts 74°
2026-05-01 12:32 61.23149 -18.26560 35053 ft 548 kts 74°
2026-05-01 12:33 61.25063 -18.11305 35053 ft 549 kts 74°
2026-05-01 12:33 61.26974 -17.95922 35051 ft 549 kts 75°
2026-05-01 12:34 61.28866 -17.80529 35046 ft 549 kts 75°
2026-05-01 12:34 61.30742 -17.65104 35044 ft 549 kts 75°
2026-05-01 12:35 61.32590 -17.49753 35037 ft 550 kts 75°
2026-05-01 12:35 61.34433 -17.34282 35038 ft 550 kts 75°
2026-05-01 12:36 61.36260 -17.18773 35036 ft 550 kts 76°
2026-05-01 12:36 61.38055 -17.03374 35034 ft 550 kts 76°
2026-05-01 12:37 61.39849 -16.87812 35028 ft 550 kts 76°
2026-05-01 12:37 61.41623 -16.72246 35031 ft 550 kts 76°
2026-05-01 12:38 61.43369 -16.56765 35026 ft 551 kts 76°
2026-05-01 12:38 61.45109 -16.41152 35020 ft 551 kts 77°
2026-05-01 12:39 61.46833 -16.25511 35018 ft 551 kts 77°
2026-05-01 12:39 61.48527 -16.09963 35012 ft 551 kts 77°
2026-05-01 12:40 61.50216 -15.94281 35010 ft 551 kts 77°
2026-05-01 12:40 61.51885 -15.78599 35004 ft 551 kts 77°
2026-05-01 12:41 61.53532 -15.62931 35007 ft 551 kts 78°
2026-05-01 12:41 61.55166 -15.47210 35003 ft 551 kts 78°
2026-05-01 12:42 61.56783 -15.31457 35001 ft 551 kts 78°
2026-05-01 12:42 61.58371 -15.15794 34994 ft 551 kts 78°
2026-05-01 12:43 61.59955 -14.99975 34996 ft 551 kts 78°
2026-05-01 12:43 61.61518 -14.84170 34992 ft 551 kts 79°
2026-05-01 12:44 61.63060 -14.68379 34988 ft 551 kts 79°
2026-05-01 12:45 61.66084 -14.36795 34983 ft 552 kts 79°
2026-05-01 12:45 61.67574 -14.20933 34985 ft 552 kts 80°
2026-05-01 12:46 61.69035 -14.05159 34981 ft 552 kts 80°
2026-05-01 12:46 61.70490 -13.89248 34981 ft 552 kts 81°
2026-05-01 12:47 61.71923 -13.73347 34982 ft 552 kts 81°
2026-05-01 12:47 61.73342 -13.57398 34977 ft 552 kts 81°
2026-05-01 12:48 61.74734 -13.41521 34971 ft 553 kts 81°
2026-05-01 12:48 61.76115 -13.25544 34971 ft 553 kts 82°
2026-05-01 12:49 61.77480 -13.09523 34973 ft 553 kts 82°
2026-05-01 12:49 61.78826 -12.93488 34968 ft 554 kts 82°
2026-05-01 12:50 61.80155 -12.77423 34968 ft 554 kts 82°
2026-05-01 12:50 61.81457 -12.61448 34962 ft 554 kts 83°
2026-05-01 12:51 61.82751 -12.45321 34958 ft 555 kts 83°
2026-05-01 12:52 61.84658 -12.21095 34959 ft 556 kts 83°
2026-05-01 12:52 61.86520 -11.96874 34960 ft 557 kts 83°
2026-05-01 12:53 61.88342 -11.72583 34957 ft 558 kts 84°
2026-05-01 12:54 61.89541 -11.56258 34952 ft 559 kts 84°
2026-05-01 12:54 61.91296 -11.31853 34952 ft 560 kts 84°
2026-05-01 12:55 61.93018 -11.07265 34951 ft 561 kts 84°
2026-05-01 12:56 61.94137 -10.90938 34949 ft 561 kts 85°
2026-05-01 12:56 61.95246 -10.74458 34949 ft 562 kts 85°
2026-05-01 12:57 61.96334 -10.57982 34951 ft 563 kts 85°
2026-05-01 12:57 61.97925 -10.33301 34950 ft 563 kts 85°
2026-05-01 12:58 61.98966 -10.16765 34957 ft 564 kts 86°
2026-05-01 12:59 62.00433 -9.91910 34947 ft 563 kts 88°
2026-05-01 12:59 62.01239 -9.67039 34947 ft 563 kts 91°
2026-05-01 13:00 62.01964 -9.42135 34946 ft 564 kts 90°
2026-05-01 13:01 62.02746 -9.17082 34955 ft 565 kts 90°
2026-05-01 13:02 62.03491 -8.91986 34960 ft 565 kts 91°
2026-05-01 13:07 62.07451 -7.10070 34987 ft 568 kts 93°
2026-05-01 13:08 62.07695 -6.93314 34991 ft 567 kts 93°
2026-05-01 13:08 62.07920 -6.76474 34976 ft 567 kts 93°
2026-05-01 13:09 62.08124 -6.59662 34977 ft 567 kts 94°
2026-05-01 13:09 62.08307 -6.42937 34973 ft 566 kts 94°
2026-05-01 13:10 62.08470 -6.26106 34976 ft 567 kts 94°
2026-05-01 13:10 62.08613 -6.09244 34976 ft 567 kts 94°
2026-05-01 13:11 62.08735 -5.92510 34979 ft 567 kts 94°
2026-05-01 13:11 62.08837 -5.75659 34981 ft 567 kts 94°
2026-05-01 13:12 62.08919 -5.58807 34984 ft 567 kts 95°
2026-05-01 13:12 62.08980 -5.41964 34985 ft 567 kts 95°
2026-05-01 13:13 62.09021 -5.25119 34984 ft 567 kts 95°
2026-05-01 13:13 62.09041 -5.08337 35231 ft 568 kts 95°
2026-05-01 13:13 62.09044 -4.99915 35511 ft 566 kts 95°
2026-05-01 13:14 62.09042 -4.91488 35791 ft 563 kts 95°
2026-05-01 13:14 62.09036 -4.83245 36040 ft 561 kts 94°
2026-05-01 13:14 62.09023 -4.74907 36254 ft 561 kts 94°
2026-05-01 13:14 62.09005 -4.66578 36447 ft 560 kts 94°
2026-05-01 13:15 62.08982 -4.58244 36689 ft 558 kts 94°
2026-05-01 13:15 62.08955 -4.49965 36966 ft 556 kts 94°
2026-05-01 13:15 62.08923 -4.41818 36988 ft 556 kts 94°
2026-05-01 13:16 62.08845 -4.25407 36990 ft 548 kts 94°
2026-05-01 13:16 62.08748 -4.09126 37000 ft 546 kts 95°
2026-05-01 13:17 62.08495 -3.76780 37005 ft 546 kts 95°
2026-05-01 13:18 62.08257 -3.52515 37000 ft 547 kts 95°
2026-05-01 13:18 62.08074 -3.36233 37003 ft 548 kts 95°
2026-05-01 13:19 62.07873 -3.20034 37014 ft 548 kts 95°
2026-05-01 13:20 62.07535 -2.95641 37012 ft 548 kts 96°
2026-05-01 13:20 62.07285 -2.79374 37014 ft 548 kts 96°
2026-05-01 13:21 62.06877 -2.55089 37013 ft 548 kts 96°
2026-05-01 13:21 62.06580 -2.38856 37012 ft 547 kts 96°
2026-05-01 13:22 62.06264 -2.22640 37014 ft 547 kts 96°
2026-05-01 13:22 62.05929 -2.06416 37014 ft 547 kts 96°
2026-05-01 13:23 62.05578 -1.90317 37012 ft 546 kts 97°
2026-05-01 13:23 62.05205 -1.74114 37016 ft 546 kts 97°
2026-05-01 13:24 62.04816 -1.58010 37016 ft 546 kts 97°
2026-05-01 13:25 62.04194 -1.33716 37021 ft 546 kts 97°
2026-05-01 13:25 62.03754 -1.17503 37020 ft 547 kts 97°
2026-05-01 13:26 62.03298 -1.01369 37018 ft 547 kts 97°
2026-05-01 13:26 62.02824 -0.85272 37026 ft 547 kts 97°
2026-05-01 13:27 62.02329 -0.69089 37022 ft 547 kts 98°
2026-05-01 13:27 62.01553 -0.44911 37022 ft 547 kts 98°
2026-05-01 13:28 62.00732 -0.20669 37025 ft 546 kts 98°
2026-05-01 13:29 61.99670 0.11500 37028 ft 547 kts 96°
2026-05-01 13:31 61.98718 0.60020 37032 ft 546 kts 96°
2026-05-01 13:32 61.97701 1.00292 37037 ft 546 kts 97°
2026-05-01 13:33 61.96573 1.40524 37039 ft 546 kts 97°
2026-05-01 13:34 61.95588 1.72680 37044 ft 546 kts 97°
2026-05-01 13:35 61.94799 1.96814 37047 ft 546 kts 97°
2026-05-01 13:36 61.93968 2.20916 37048 ft 545 kts 97°
2026-05-01 13:36 61.93095 2.45009 37048 ft 545 kts 98°
2026-05-01 13:37 61.92493 2.60966 37066 ft 545 kts 98°
2026-05-01 13:37 61.91868 2.77045 37058 ft 545 kts 98°
2026-05-01 13:38 61.90902 3.00988 37065 ft 544 kts 98°
2026-05-01 13:39 61.90233 3.16988 37065 ft 544 kts 98°
2026-05-01 13:39 61.89549 3.32886 37059 ft 543 kts 98°
2026-05-01 13:40 61.88844 3.48849 37072 ft 543 kts 98°
2026-05-01 13:40 61.88120 3.64803 37081 ft 542 kts 98°
2026-05-01 13:41 61.87383 3.80636 37073 ft 542 kts 98°
2026-05-01 13:41 61.86624 3.96547 37086 ft 542 kts 99°
2026-05-01 13:42 61.85848 4.12437 37090 ft 541 kts 99°
2026-05-01 13:42 61.85055 4.28280 37092 ft 541 kts 99°
2026-05-01 13:43 61.84247 4.44048 37102 ft 540 kts 99°
2026-05-01 13:43 61.83418 4.59860 37102 ft 539 kts 99°
2026-05-01 13:44 61.82572 4.75649 37113 ft 538 kts 99°
2026-05-01 13:44 61.81710 4.91393 37118 ft 538 kts 99°
2026-05-01 13:45 61.80836 5.07029 37119 ft 537 kts 99°
2026-05-01 13:45 61.79939 5.22731 37120 ft 536 kts 99°
2026-05-01 13:46 61.79030 5.38323 37116 ft 536 kts 99°
2026-05-01 13:46 61.78100 5.53957 37111 ft 535 kts 99°
2026-05-01 13:47 61.77161 5.69462 37110 ft 535 kts 100°
2026-05-01 13:47 61.76196 5.85091 37104 ft 535 kts 100°
2026-05-01 13:48 61.75218 6.00635 37136 ft 534 kts 100°
2026-05-01 13:48 61.74224 6.16114 37106 ft 535 kts 100°
2026-05-01 13:49 61.73208 6.31684 37125 ft 536 kts 101°
2026-05-01 13:49 61.72169 6.47304 37103 ft 537 kts 100°
2026-05-01 13:50 61.71111 6.62926 37110 ft 539 kts 101°
2026-05-01 13:50 61.70038 6.78517 37076 ft 539 kts 101°
2026-05-01 13:51 61.68946 6.94129 37100 ft 537 kts 101°
2026-05-01 13:51 61.67848 7.09568 37093 ft 534 kts 101°
2026-05-01 13:52 61.66727 7.25040 37112 ft 532 kts 101°
2026-05-01 13:52 61.65601 7.40337 37137 ft 530 kts 101°
2026-05-01 13:53 61.64458 7.55674 37125 ft 529 kts 101°
2026-05-01 13:53 61.62707 7.78610 37122 ft 528 kts 102°
2026-05-01 13:54 61.61524 7.93838 37147 ft 528 kts 102°
2026-05-01 13:54 61.60328 8.09012 37157 ft 529 kts 102°
2026-05-01 13:55 61.59102 8.24325 37154 ft 531 kts 102°
2026-05-01 13:55 61.57865 8.39558 37148 ft 532 kts 102°
2026-05-01 13:56 61.56602 8.54894 37147 ft 534 kts 102°
2026-05-01 13:56 61.55538 8.67660 37149 ft 534 kts 102°
2026-05-01 13:57 61.54236 8.83050 37151 ft 536 kts 102°
2026-05-01 13:57 61.52915 8.98458 37149 ft 538 kts 102°
2026-05-01 13:58 61.51570 9.13918 37141 ft 539 kts 102°
2026-05-01 13:58 61.50214 9.29302 37140 ft 541 kts 102°
2026-05-01 13:59 61.48827 9.44822 37140 ft 543 kts 103°
2026-05-01 13:59 61.47414 9.60423 37129 ft 545 kts 103°
2026-05-01 14:00 61.45991 9.75924 37129 ft 546 kts 103°
2026-05-01 14:00 61.44538 9.91548 37127 ft 547 kts 103°
2026-05-01 14:01 61.43066 10.07151 37119 ft 547 kts 103°
2026-05-01 14:01 61.41585 10.22662 37115 ft 547 kts 103°
2026-05-01 14:02 61.40074 10.38288 37115 ft 547 kts 103°
2026-05-01 14:02 61.38557 10.53775 37115 ft 547 kts 103°
2026-05-01 14:03 61.37016 10.69304 37115 ft 546 kts 103°
2026-05-01 14:03 61.35458 10.84822 37124 ft 546 kts 104°
2026-05-01 14:04 61.33893 11.00220 37108 ft 545 kts 104°
2026-05-01 14:04 61.32301 11.15691 37099 ft 545 kts 104°
2026-05-01 14:05 61.30694 11.31110 37110 ft 544 kts 104°
2026-05-01 14:05 61.29074 11.46488 37106 ft 543 kts 104°
2026-05-01 14:06 61.27445 11.61762 37101 ft 544 kts 104°
2026-05-01 14:06 61.25788 11.77121 37098 ft 544 kts 104°
2026-05-01 14:07 61.24115 11.92460 37100 ft 545 kts 104°
2026-05-01 14:08 61.21566 12.15494 37093 ft 545 kts 104°
2026-05-01 14:08 61.19849 12.30796 37098 ft 545 kts 104°
2026-05-01 14:09 61.18114 12.46093 37092 ft 545 kts 104°
2026-05-01 14:09 61.16374 12.61291 37092 ft 545 kts 105°
2026-05-01 14:10 61.15083 12.76747 37108 ft 545 kts 95°
2026-05-01 14:10 61.14895 12.92453 37104 ft 545 kts 90°
2026-05-01 14:11 61.14858 13.08163 37093 ft 544 kts 90°
2026-05-01 14:11 61.14705 13.31548 37095 ft 542 kts 91°
2026-05-01 14:12 61.14547 13.47180 37076 ft 542 kts 91°
2026-05-01 14:12 61.14369 13.62785 37075 ft 541 kts 91°
2026-05-01 14:13 61.14209 13.75746 37069 ft 540 kts 91°
2026-05-01 14:13 61.13968 13.93850 37063 ft 540 kts 91°
2026-05-01 14:14 61.13744 14.09294 37069 ft 539 kts 91°
2026-05-01 14:14 61.13501 14.24817 37071 ft 538 kts 91°
2026-05-01 14:15 61.13240 14.40326 37069 ft 538 kts 91°
2026-05-01 14:15 61.12964 14.55713 37072 ft 538 kts 92°
2026-05-01 14:16 61.12667 14.71215 37071 ft 538 kts 92°
2026-05-01 14:16 61.12355 14.86612 37064 ft 538 kts 92°
2026-05-01 14:17 61.12024 15.02079 37061 ft 538 kts 92°
2026-05-01 14:17 61.11676 15.17547 37051 ft 538 kts 92°
2026-05-01 14:18 61.11309 15.33000 37055 ft 538 kts 92°
2026-05-01 14:18 61.10991 15.45872 37049 ft 538 kts 92°
2026-05-01 14:19 61.10525 15.63858 37045 ft 538 kts 92°
2026-05-01 14:19 61.10105 15.79342 37047 ft 538 kts 92°
2026-05-01 14:20 61.09446 16.02429 37044 ft 538 kts 93°
2026-05-01 14:21 61.08981 16.17893 37043 ft 538 kts 93°
2026-05-01 14:21 61.08503 16.33233 37043 ft 538 kts 93°
2026-05-01 14:22 61.07749 16.56395 37044 ft 537 kts 93°
2026-05-01 14:22 61.07224 16.71817 37039 ft 537 kts 93°
2026-05-01 14:23 61.06686 16.87126 37042 ft 537 kts 93°
2026-05-01 14:23 61.06127 17.02521 37046 ft 537 kts 94°
2026-05-01 14:24 61.05550 17.17912 37055 ft 537 kts 94°
2026-05-01 14:24 61.04956 17.33291 37057 ft 537 kts 94°
2026-05-01 14:25 61.04347 17.48608 37063 ft 537 kts 94°
2026-05-01 14:25 61.03722 17.63883 37063 ft 537 kts 94°
2026-05-01 14:26 61.02745 17.86953 37067 ft 538 kts 94°
2026-05-01 14:27 61.02072 18.02321 37068 ft 538 kts 94°
2026-05-01 14:27 61.01381 18.17700 37071 ft 538 kts 94°
2026-05-01 14:28 61.00313 18.40720 37076 ft 538 kts 94°
2026-05-01 14:28 60.99582 18.55985 37080 ft 537 kts 94°
2026-05-01 14:29 60.98831 18.71326 37084 ft 537 kts 95°
2026-05-01 14:30 60.97283 19.01824 37093 ft 536 kts 95°
2026-05-01 14:31 60.96075 19.24738 37096 ft 535 kts 95°
2026-05-01 14:31 60.95255 19.39860 37098 ft 535 kts 95°
2026-05-01 14:32 60.94413 19.55080 37101 ft 534 kts 95°
2026-05-01 14:32 60.93555 19.70265 37104 ft 534 kts 95°
2026-05-01 14:33 60.92679 19.85451 37106 ft 534 kts 95°
2026-05-01 14:33 60.91792 20.00532 37105 ft 534 kts 95°
2026-05-01 14:34 60.90884 20.15683 37113 ft 534 kts 95°
2026-05-01 14:34 60.89958 20.30822 37109 ft 534 kts 95°
2026-05-01 14:35 60.89015 20.45969 37112 ft 533 kts 96°
2026-05-01 14:35 60.88055 20.61098 37113 ft 533 kts 96°
2026-05-01 14:36 60.87086 20.76106 37116 ft 533 kts 96°
2026-05-01 14:36 60.86091 20.91229 37121 ft 533 kts 96°
2026-05-01 14:37 60.85088 21.06221 37120 ft 533 kts 96°
2026-05-01 14:37 60.84063 21.21282 37123 ft 532 kts 96°
2026-05-01 14:38 60.83022 21.36315 37127 ft 532 kts 96°
2026-05-01 14:38 60.81971 21.51247 37128 ft 532 kts 96°
2026-05-01 14:39 60.80897 21.66261 37121 ft 532 kts 96°
2026-05-01 14:39 60.79813 21.81181 37123 ft 531 kts 96°
2026-05-01 14:40 60.78706 21.96178 37120 ft 531 kts 96°
2026-05-01 14:40 60.77593 22.11046 37115 ft 530 kts 97°
2026-05-01 14:41 60.76173 22.25900 37116 ft 531 kts 100°
2026-05-01 14:41 60.74557 22.40654 37108 ft 530 kts 101°
2026-05-01 14:42 60.72938 22.55279 37109 ft 530 kts 101°
2026-05-01 14:42 60.71318 22.70007 37112 ft 529 kts 100°
2026-05-01 14:43 60.69714 22.84566 37108 ft 529 kts 101°
2026-05-01 14:43 60.68087 22.99180 37111 ft 528 kts 101°
2026-05-01 14:44 60.66439 23.13815 37110 ft 527 kts 101°
2026-05-01 14:44 60.63950 23.35595 37112 ft 526 kts 101°
2026-05-01 14:45 60.61707 23.54941 37112 ft 526 kts 101°
2026-05-01 14:46 60.60005 23.69441 37107 ft 526 kts 101°
2026-05-01 14:46 60.57436 23.91057 37101 ft 525 kts 101°
2026-05-01 14:47 60.55698 24.05493 37101 ft 525 kts 101°
2026-05-01 14:48 60.53071 24.27053 37092 ft 524 kts 101°
2026-05-01 14:48 60.50403 24.48627 37090 ft 524 kts 101°
2026-05-01 14:49 60.46807 24.77208 37074 ft 524 kts 102°
2026-05-01 14:50 60.43142 25.05794 37084 ft 523 kts 102°
2026-05-01 14:51 60.40364 25.27101 37079 ft 523 kts 102°
2026-05-01 14:52 60.37554 25.48365 37095 ft 523 kts 102°
2026-05-01 14:53 60.34703 25.69643 37105 ft 522 kts 102°
2026-05-01 14:53 60.32796 25.83719 37109 ft 522 kts 102°
2026-05-01 14:54 60.30862 25.97855 37112 ft 522 kts 102°
2026-05-01 14:54 60.28917 26.11958 37108 ft 521 kts 102°
2026-05-01 14:55 60.26969 26.25955 37111 ft 521 kts 102°
2026-05-01 14:55 60.24998 26.39997 37110 ft 520 kts 102°
2026-05-01 14:56 60.23011 26.54029 37115 ft 520 kts 102°
2026-05-01 14:56 60.21026 26.67928 37113 ft 519 kts 102°
2026-05-01 14:57 60.19015 26.81906 37118 ft 519 kts 103°
2026-05-01 14:57 60.16285 27.02839 37120 ft 515 kts 97°
2026-05-01 14:58 60.14938 27.16943 37126 ft 515 kts 97°
2026-05-01 14:58 60.13586 27.31082 37125 ft 515 kts 97°
2026-05-01 14:59 60.12200 27.45101 37118 ft 515 kts 97°
2026-05-01 14:59 60.10774 27.59207 37120 ft 515 kts 98°
2026-05-01 15:00 60.08603 27.80358 37124 ft 516 kts 98°
2026-05-01 15:01 60.07148 27.94367 37129 ft 516 kts 98°
2026-05-01 15:01 60.05672 28.08420 37138 ft 515 kts 98°
2026-05-01 15:02 60.04182 28.22454 37125 ft 515 kts 98°
2026-05-01 15:02 60.02686 28.36394 37125 ft 515 kts 98°
2026-05-01 15:03 60.01165 28.50418 37127 ft 515 kts 98°
2026-05-01 15:03 59.99630 28.64421 37130 ft 515 kts 98°
2026-05-01 15:04 59.98081 28.78425 37131 ft 516 kts 98°
2026-05-01 15:04 59.96498 28.92305 37127 ft 516 kts 99°
2026-05-01 15:05 59.94849 29.06266 37125 ft 516 kts 99°
2026-05-01 15:05 59.93187 29.20231 37129 ft 517 kts 99°
2026-05-01 15:06 59.91519 29.34172 37127 ft 517 kts 99°
2026-05-01 15:06 59.89849 29.48023 37119 ft 516 kts 99°
2026-05-01 15:07 59.88155 29.61923 37119 ft 516 kts 99°
2026-05-01 15:07 59.86608 29.74504 37110 ft 515 kts 99°
2026-05-01 15:08 59.84889 29.88359 37110 ft 515 kts 99°
2026-05-01 15:08 59.83160 30.02181 37109 ft 514 kts 99°
2026-05-01 15:09 59.81420 30.15914 37107 ft 514 kts 100°
2026-05-01 15:09 59.79636 30.29656 37107 ft 513 kts 100°
2026-05-01 15:10 59.77839 30.43366 37103 ft 513 kts 100°
2026-05-01 15:10 59.75123 30.63914 37109 ft 512 kts 100°
2026-05-01 15:11 59.72395 30.84294 37109 ft 512 kts 100°
2026-05-01 15:12 59.70547 30.97963 37113 ft 512 kts 100°
2026-05-01 15:12 59.67428 31.18136 37113 ft 517 kts 109°
2026-05-01 15:14 59.58845 31.49652 37121 ft 521 kts 114°
2026-05-01 15:14 59.53666 31.68435 37130 ft 522 kts 114°
2026-05-01 15:15 59.45827 31.92628 37129 ft 530 kts 128°
2026-05-01 15:16 59.35990 32.14118 37131 ft 530 kts 127°
2026-05-01 15:18 59.23807 32.41130 37133 ft 530 kts 128°
2026-05-01 15:19 59.14005 32.62562 37142 ft 529 kts 128°
2026-05-01 15:19 59.06629 32.78563 37142 ft 529 kts 128°
2026-05-01 15:20 58.99237 32.94492 37150 ft 529 kts 128°
2026-05-01 15:21 58.94325 33.05017 37153 ft 528 kts 128°
2026-05-01 15:21 58.89384 33.15558 37152 ft 527 kts 128°
2026-05-01 15:22 58.81992 33.31214 37153 ft 526 kts 128°
2026-05-01 15:22 58.77053 33.41618 37163 ft 525 kts 128°
2026-05-01 15:23 58.72098 33.52013 37157 ft 525 kts 128°
2026-05-01 15:23 58.67156 33.62338 37160 ft 524 kts 128°
2026-05-01 15:24 58.62204 33.72636 37160 ft 523 kts 128°
2026-05-01 15:24 58.57284 33.82821 37159 ft 523 kts 128°
2026-05-01 15:25 58.52332 33.93026 37157 ft 522 kts 128°
2026-05-01 15:25 58.47383 34.03182 37160 ft 521 kts 128°
2026-05-01 15:26 58.42458 34.13243 37159 ft 521 kts 128°
2026-05-01 15:26 58.37488 34.23352 37174 ft 520 kts 128°
2026-05-01 15:27 58.32557 34.33339 37162 ft 520 kts 128°
2026-05-01 15:28 58.25114 34.48335 37164 ft 519 kts 128°
2026-05-01 15:28 58.20120 34.58226 37172 ft 520 kts 131°
2026-05-01 15:29 58.11772 34.71619 37171 ft 524 kts 136°
2026-05-01 15:30 58.01513 34.87620 37173 ft 524 kts 135°
2026-05-01 15:31 57.83756 35.15331 37172 ft 523 kts 135°
2026-05-01 15:32 57.72530 35.32651 37175 ft 523 kts 135°
2026-05-01 15:34 57.55714 35.58341 36809 ft 512 kts 135°